Location: Asheville, NC
(35.6000°N, 82.5500°W)
Time: 02:52:30
(UTC-05:00)

M-CUBED/EXP-1 PRIME - Visible Passes

Search period start: 22 January 2018 00:00
Search period end: 01 February 2018 00:00
Orbit: 431 x 678 km, 101.7° (Epoch: 21 January)

Date Brightness Start Highest point End Pass type
(mag) Time Alt. Az. Time Alt. Az. Time Alt. Az.
26 Jan ? 06:41:11 10° NNW 06:41:42 12° NW 06:41:42 12° NW visible
27 Jan ? 05:03:20 10° NE 05:03:35 11° ENE 05:03:35 11° ENE visible
27 Jan ? 06:37:55 10° NNW 06:39:26 16° NW 06:39:26 16° NW visible
28 Jan ? 05:00:35 10° ENE 05:01:30 14° ENE 05:01:30 14° ENE visible
28 Jan ? 06:34:42 10° NNW 06:37:03 19° WNW 06:37:23 19° WNW visible
29 Jan ? 04:57:54 10° ENE 04:59:42 14° E 04:59:53 14° ESE visible
29 Jan ? 06:31:32 10° NNW 06:34:05 22° WNW 06:35:50 15° WSW visible
30 Jan ? 04:55:22 10° ENE 04:56:41 12° E 04:58:00 10° ESE visible
30 Jan ? 06:28:23 10° N 06:31:07 25° WNW 06:33:53 10° SW visible
31 Jan ? 04:53:19 10° E 04:53:39 10° E 04:54:00 10° ESE visible
31 Jan ? 06:25:16 10° N 06:28:09 30° WNW 06:31:04 10° SW visible
